Blue Ridge Summit, PA

7:54 AM EST on February 08, 2016 (GMT -0500)
Fountain Dale

Weather History for KRYT - October, 2012

Change the Weather History Date:

Sunday, October 7, 2012

  Actual Average (KHGR) Record (KHGR)
Temperature  
Mean Temperature 50 °F 58 °F  
Max Temperature 55 °F 68 °F - ()
Min Temperature 46 °F 47 °F - ()
Degree Days  
Heating Degree Days 15 8  
Month to date heating degree days 49  
Since 1 July heating degree days 123  
Cooling Degree Days 0 1  
Month to date cooling degree days 7  
Year to date cooling degree days 966  
Moisture  
Dew Point 41 °F    
Average Humidity 71    
Maximum Humidity 83    
Minimum Humidity 53    
Precipitation  
Precipitation 0.04 in 0.11 in - ()
Month to date precipitation 0.81  
Year to date precipitation 31.11  
Sea Level Pressure  
Sea Level Pressure 30.09 in    
Wind  
Wind Speed 1 mph (South)    
Max Wind Speed 5 mph    
Max Gust Speed -    
Visibility 10 miles    
Events Rain    
T = Trace of Precipitation, MM = Missing Value Source: NWS Daily Summary

Daily Weather History Graph

Daily Weather History Graph

Search for Another Location

Airport or City:

Trip Planner

Search our weather history database for the weather conditions in past years. The results will help you decide how hot, cold, wet, or windy it might be!

Date:

Astronomy

Oct. 07, 2012 Rise Set
Actual Time 7:12 AM EDT 6:41 PM EDT
Civil Twilight 6:45 AM EDT 7:08 PM EDT
Nautical Twilight 6:14 AM EDT 7:39 PM EDT
Astronomical Twilight 5:42 AM EDT 8:11 PM EDT
Moon 11:52 PM EDT (10/7) 1:47 PM EDT (10/7)
Length of Visible Light 12h 23m
Length of Day
11h 29m
Waning Gibbous, 56% of the Moon is Illuminated
Oct 7
Waning Gibbous
Oct 8
Last Quarter
Oct 15
New
Oct 21
First Quarter
Oct 29
Full

Hourly Weather History & Observations

Time (EDT) Temp. Dew Point Humidity Pressure Visibility Wind Dir Wind Speed Gust Speed Precip Events Conditions
12:53 AM 54.0 °F 37.0 °F 53% 30.03 in 10.0 mi NNE 4.6 mph - N/A   Clear
2:53 AM 52.0 °F 35.1 °F 53% 30.03 in 10.0 mi Variable 4.6 mph - N/A   Clear
3:53 AM 48.0 °F 39.0 °F 71% 30.04 in 10.0 mi Calm Calm - N/A   Mostly Cloudy
4:53 AM 50.0 °F 39.0 °F 66% 30.06 in 10.0 mi Calm Calm - N/A   Overcast
5:53 AM 50.0 °F 41.0 °F 71% 30.07 in 10.0 mi Calm Calm - N/A   Overcast
6:53 AM 50.0 °F 42.1 °F 74% 30.08 in 10.0 mi Calm Calm - N/A   Overcast
7:53 AM 50.0 °F 42.1 °F 74% 30.09 in 10.0 mi Calm Calm - N/A   Overcast
8:53 AM 50.0 °F 43.0 °F 77% 30.12 in 10.0 mi Calm Calm - 0.00 in Rain Light Rain
9:53 AM 51.1 °F 43.0 °F 74% 30.12 in 10.0 mi Calm Calm - 0.00 in   Overcast
10:53 AM 52.0 °F 43.0 °F 71% 30.11 in 10.0 mi Calm Calm - 0.01 in   Overcast
12:53 PM 53.1 °F 37.9 °F 57% 30.09 in 10.0 mi Calm Calm - N/A   Overcast
1:53 PM 53.1 °F 37.9 °F 57% 30.06 in 10.0 mi Calm Calm - 0.00 in   Overcast
2:53 PM 53.1 °F 37.9 °F 57% 30.05 in 10.0 mi Calm Calm - N/A   Overcast
3:53 PM 53.1 °F 43.0 °F 69% 30.04 in 10.0 mi West 4.6 mph - N/A   Overcast
4:53 PM 52.0 °F 42.1 °F 69% 30.04 in 10.0 mi Calm Calm - 0.01 in Rain Light Rain
6:53 PM 50.0 °F 44.1 °F 80% 30.09 in 8.0 mi Calm Calm - 0.02 in Rain Light Rain
7:53 PM 50.0 °F 45.0 °F 83% 30.11 in 8.0 mi Calm Calm - 0.00 in   Overcast
8:00 PM 50.0 °F 44.6 °F 82% 30.10 in 8.0 mi Calm Calm - N/A   Overcast
8:08 PM 50.0 °F 44.6 °F 82% 30.10 in 7.0 mi Calm Calm - N/A   Overcast
8:33 PM 51.8 °F 42.8 °F 71% 30.11 in 10.0 mi Calm Calm - N/A   Overcast
8:43 PM 50.0 °F 42.8 °F 76% 30.11 in 10.0 mi Calm Calm - N/A   Mostly Cloudy
8:53 PM 50.0 °F 43.0 °F 77% 30.12 in 10.0 mi Calm Calm - N/A   Mostly Cloudy
9:01 PM 50.0 °F 42.8 °F 76% 30.11 in 10.0 mi Calm Calm - N/A   Overcast
9:53 PM 48.9 °F 39.9 °F 71% 30.14 in 10.0 mi Calm Calm - N/A   Mostly Cloudy
10:53 PM 46.9 °F 39.0 °F 74% 30.16 in 10.0 mi SE 3.5 mph - N/A   Scattered Clouds
11:53 PM 46.9 °F 39.0 °F 74% 30.17 in 10.0 mi Calm Calm - N/A   Mostly Cloudy